This is the latest recevied weather packets stored in our database for station/object JH7UAX-10. If no packets are shown the sender has not sent any weather packets the latest 10 day(s).
| Time | Temp. | Humidity | Pressure | Rain* | Wind** | Luminosity | Snow |
|---|---|---|---|---|---|---|---|
| 1777608478 | 13.89° C | 89% | 1015.4 hPa | 0.76 mm | - | - | - |
| 1777607578 | 13.89° C | 89% | 1015.9 hPa | 1.27 mm | - | - | - |
| 1777606678 | 13.89° C | 89% | 1016.2 hPa | 1.27 mm | - | - | - |
| 1777606206 | 14.44° C | 88% | 1016.3 hPa | 1.27 mm | - | - | - |
| 1777605777 | 14.44° C | 87% | 1016.6 hPa | 1.27 mm | - | - | - |
| 1777605305 | 14.44° C | 85% | 1017 hPa | 1.02 mm | - | - | - |
| 1777604879 | 15° C | 82% | 1017.3 hPa | 0.76 mm | - | - | - |
| 1777604405 | 15° C | 80% | 1017.6 hPa | 0.25 mm | - | - | - |
| 1777603979 | 15.56° C | 79% | 1017.7 hPa | 0 mm | - | - | - |
| 1777603504 | 15.56° C | 77% | 1017.9 hPa | 0 mm | - | - | - |
| 1777603078 | 15.56° C | 75% | 1018.2 hPa | 0 mm | - | - | - |
| 1777602604 | 16.11° C | 72% | 1018.4 hPa | 0 mm | - | - | - |
| 1777602178 | 16.67° C | 69% | 1018.4 hPa | 0 mm | - | - | - |
| 1777601706 | 16.67° C | 67% | 1018.6 hPa | 0 mm | - | - | - |
| 1777601279 | 16.67° C | 65% | 1018.8 hPa | 0 mm | - | - | - |
| 1777600806 | 17.22° C | 64% | 1019 hPa | 0 mm | - | - | - |
| 1777600378 | 16.67° C | 64% | 1019.4 hPa | 0 mm | - | - | - |
| 1777599478 | 16.67° C | 62% | 1019.8 hPa | 0 mm | - | - | - |
| 1777598577 | 16.67° C | 62% | 1020.1 hPa | 0 mm | - | - | - |
| 1777597679 | 16.11° C | 62% | 1020.3 hPa | 0 mm | - | - | - |
| 1777597205 | 16.11° C | 62% | 1020.5 hPa | 0 mm | - | - | - |
| 1777596779 | 15.56° C | 63% | 1020.7 hPa | 0 mm | - | - | - |
| 1777595878 | 15° C | 63% | 1021 hPa | 0 mm | - | - | - |
| 1777594978 | 15.56° C | 61% | 1021.1 hPa | 0 mm | - | - | - |
| 1777594506 | 15.56° C | 61% | 1021.3 hPa | 0 mm | - | - | - |
* Rain latest hour (hover to see other rain measurements)
** Current wind speed in m/s (hover to see current wind gust speed)